Starlink 32765

operational
NORAD ID: 62747 Int'l Des: 2025-014 Owner: SPXS Country: US Constellation: starlink
LEOCIRCULAR

关于 Starlink 32765

正在加载描述...

实时位置

正在加载3D地球...

即将过境

高度历史

Altitude vs Time

uPlot chart will show altitude changes over time

两行轨道根数

1 62747U 25014N 25258.17392706 .00055301 00000-0 20002-2 0 9995
2 62747 43.0056 65.6840 0001868 269.1263 90.9375 15.27643355 36415
Epoch: Sep 15, 2025 • Age: 26 hours

当前状态

高度 492.3 km
速度 7.62 km/s
星下点 -37.18°S, 156.98°W
发射日期 Jan 21, 2025
运行时间 0.6 years
类型 internet

技术详情

分类 Payload
质量 730.00 kg
干质量 700.00 kg
总质量 730.00 kg
长度 0.30 m
直径 4.10 m
跨度 29.00 m
形状 Box + pan
制造商 SPXS
平台类型 Starlink V2M
阶段状态 In Orbit
所有者/国家 SPXS/US

大型星座

Loading constellations...